#timestamp,LO_Frequency,Hit,StdDev 
1459897215.4,286047002.7,N
1459897235.3,286047000.0,N
1459897255.1,286046999.8,N
1459897256.0,286046999.8,N
1459897275.8,286047002.4,N
1459897295.7,286046998.6,N
1459897315.5,286047001.2,N
1459897335.3,286046998.5,N
1459897355.2,286046999.7,N
1459897375.9,286047002.6,N
1459897395.7,286047001.3,N
1459897415.5,286047002.7,N
1459897435.4,286047000.0,N
1459897455.2,286047000.5,N
1459897475.0,286047002.7,N
1459897475.9,286047002.7,N
1459897495.8,286047001.8,N
1459897515.6,286047001.3,N
1459897535.4,286047005.9,Y
1459897555.3,286047001.7,P
1459897575.1,286047003.7,P
1459897595.8,286047003.7,N
1459897615.7,286047003.7,N
1459897635.5,286047004.3,Y
1459897655.3,286046996.6,P
1459897675.2,286046995.0,N
1459897695.9,286046997.6,N
1459897715.7,286046995.3,N
1459897735.6,286046993.8,N
1459897755.4,286046996.3,N
1459897775.2,286046994.6,N
1459897795.1,286046993.9,N
1459897796.0,286046993.9,N
1459897815.8,286046994.2,N
1459897835.6,286046991.8,Y
1459897855.5,286046996.9,P
1459897875.3,286046997.6,P
1459897895.1,286046995.3,P
1459897915.9,286046997.1,Y
1459897935.7,286047002.8,P
1459897955.5,286047002.6,N
1459897975.4,286047002.2,N
1459897995.2,286046999.8,N
1459898015.0,286047002.2,N
1459898015.9,286047002.2,N
1459898035.8,286047000.0,N
1459898055.6,286047000.7,N
1459898075.4,286046999.9,N
1459898095.2,286047002.5,N
1459898115.1,286047003.9,N
1459898116.0,286047003.9,N
1459898135.8,286047002.2,N
1459898155.6,286047001.8,N
1459898175.5,286047001.6,N
1459898195.3,286047003.3,N
1459898215.1,286047005.2,N
1459898235.9,286047006.9,Y
1459898255.7,286047004.8,P
1459898275.5,286047008.2,P
1459898295.4,286047010.0,P
1459898315.2,286047010.7,Y
1459898335.0,286047001.8,P
1459898335.9,286047001.8,N
1459898355.8,286047005.2,N
1459898375.6,286047009.0,Y
1459898395.4,286047002.9,P
1459898415.3,286047006.0,P
1459898435.1,286047005.8,P
1459898455.8,286047001.4,N
1459898475.7,286047003.7,N
1459898495.5,286047003.5,N
1459898515.3,286047004.4,N
1459898535.2,286047005.6,Y
1459898555.9,286046998.7,P
1459898575.7,286046999.6,N
1459898595.6,286047000.9,N
1459898615.4,286047001.5,N
1459898635.2,286047002.6,N
1459898655.0,286047002.2,N
1459898656.0,286047002.2,N
1459898675.8,286047001.1,N
1459898695.6,286047001.2,N
1459898715.5,286046998.4,N
1459898735.3,286046996.7,N
1459898755.1,286046997.4,N
1459898775.9,286046997.1,N
1459898795.7,286046994.9,N
1459898815.5,286046996.0,N
1459898835.3,286046998.9,N
1459898855.2,286046999.1,N
1459898875.0,286046996.7,N
1459898875.9,286046996.7,N
1459898895.7,286046999.3,N
1459898915.6,286046997.2,N
1459898935.4,286046995.2,N
1459898955.2,286046995.2,N
1459898975.1,286046993.7,N
1459898976.0,286046993.7,N
1459898995.8,286046994.5,N
1459899015.6,286046994.9,N
1459899035.5,286046995.9,N
1459899055.3,286046996.3,N
1459899075.1,286046996.3,N
1459899095.9,286046995.6,N
1459899115.7,286046994.5,N
1459899135.5,286046993.6,N
1459899155.3,286046992.3,N
1459899175.2,286046990.4,Y
1459899195.0,286046996.0,P
1459899195.9,286046996.0,P
1459899215.7,286046994.2,P
1459899235.6,286046995.8,Y
1459899255.4,286046998.7,P
1459899275.3,286046998.3,N
1459899295.1,286047000.7,N
1459899296.0,286047000.7,N
1459899315.8,286046999.7,N
1459899335.6,286046999.7,N
1459899355.5,286046998.9,N
1459899375.3,286046996.8,N
1459899395.1,286046999.4,N
1459899415.9,286046999.4,N
1459899435.7,286047000.1,N
1459899455.5,286047000.5,N
1459899475.4,286047001.0,N
1459899495.2,286046998.7,N
1459899515.0,286047000.1,N
1459899515.9,286047000.1,N
1459899535.8,286046998.6,N
1459899555.6,286047000.3,N
1459899575.4,286047001.2,N
1459899595.3,286047000.5,N
1459899615.1,286046999.9,N
1459899616.0,286046999.9,N
1459899635.8,286047001.4,N
1459899655.6,286047001.5,N
1459899675.5,286047001.9,N
1459899695.3,286047002.6,N
1459899715.1,286046999.7,N
1459899735.9,286047000.0,N
1459899755.7,286047000.8,N
1459899775.5,286046999.2,N
1459899795.4,286047000.3,N
1459899815.2,286046999.9,N
1459899835.0,286046998.3,N
1459899835.9,286046998.3,N
1459899855.8,286047004.1,Y
1459899875.6,286047004.0,P
1459899895.4,286047001.7,N
1459899915.3,286047001.3,N
1459899935.1,286047001.3,N
1459899936.0,286047001.3,N
1459899955.8,286047002.1,N
1459899975.7,286047002.3,N
1459899995.5,286047004.4,Y
1459900015.3,286047000.2,P
1459900035.2,286047003.8,P
1459900055.9,286047001.8,N
1459900075.7,286047001.3,N
1459900095.6,286047001.4,N
1459900115.4,286047003.6,Y
1459900135.2,286047000.6,P
1459900155.1,286047002.2,P
1459900156.0,286047002.2,P
1459900175.8,286047001.9,N
1459900195.6,286047001.8,N
1459900215.5,286047001.7,Y
1459900235.3,286047002.4,P
1459900255.1,286047000.2,N
1459900275.9,286047001.0,N
1459900295.7,286047001.9,N
1459900315.5,286046999.9,N
1459900335.3,286047002.0,N
1459900355.2,286047001.7,N
1459900375.0,286047006.0,Y
1459900375.9,286047006.0,P
1459900395.8,286047002.3,N
1459900415.6,286047001.8,N
1459900435.4,286047001.5,N
1459900455.2,286047001.8,N
1459900475.1,286047001.3,N
1459900476.0,286047001.3,N
1459900495.8,286047002.7,N
1459900515.6,286047001.8,N
1459900535.5,286047004.4,Y
1459900555.3,286047002.0,P
1459900575.1,286047002.2,P
1459900595.9,286046998.6,P
1459900615.7,286046999.5,N
1459900635.5,286047001.2,N
1459900655.4,286046999.0,N
1459900675.2,286047000.7,N
1459900695.0,286047001.9,N
1459900695.9,286047001.9,N
1459900715.8,286047004.0,N
1459900735.6,286047001.7,N
1459900755.4,286047002.0,N
1459900775.3,286047000.1,N
1459900795.1,286047000.0,N
1459900796.0,286047000.0,N
